Location: Powder Track
(41.8531°N, 72.3584°W)
Time: 09:10:53
(UTC+00:00)

Altair - Pass Details

Date: 03 August 2021
Orbit: 1501 x 1682 km, 47.2° (Epoch: 19 September)

Event Time Altitude Azimuth Distance (km) Brightness Sun altitude
Exits shadow 07:05:52 25° 257° (WSW) 2,753 8.4 -23.5°
Maximum altitude 07:12:06 77° 340° (NNW) 1,559 7.5 -22.9°
Drops below altitude 10° 07:21:20 10° 67° (ENE) 3,659 10.3 -21.9°
Sets 07:24:22 0° 69° (ENE) 4,637 11.0 -21.5°
